Temp
64 64 64 64 64 63 63 63 62 62 62 62 62 63 62 62 61 62 61 61 61 61 61 62 62 63 62 65 77 86 81 80 83 85 86 86 84 83 72 75 75 72 77 81 85 86 91
64 64 64 64 63 63 63 63 63 62 62 62 62 62 62 61 61 61 61 61 60 60 61 62 63 63 62 66 91 89 85 83 87 85 86 88 87 93 82 77 74 79 79 83 85 88 93
64 64 64 63 63 63 63 63 63 62 62 62 61 61 62 61 61 60 60 60 60 60 62 63 64 69 73 76 94 90 89 84 88 88 86 93 93 86 85 78 85 83 75 80 82 85 80
64 64 63 63 63 63 63 63 62 62 62 61 61 60 61 61 60 60 60 59 60 61 63 66 65 66 66 91 88 95 90 88 92 91 92 93 92 85 80 87 86 76 76 69 84 83 83
64 63 63 63 63 62 62 62 62 62 61 61 61 60 60 61 60 60 59 59 60 63 65 67 60 61 72 87 88 91 92 89 91 89 90 101 88 78 82 74 73 75 65 70 76 88 81
63 63 63 63 63 62 62 61 61 62 61 61 60 59 59 59 59 59 58 59 66 64 67 76 79 66 79 83 88 93 92 95 88 86 85 82 75 69 71 65 58 65 66 66 69 78 76
63 63 63 62 62 62 61 61 61 61 62 61 60 59 58 58 59 58 57 69 66 63 69 72 74 78 86 91 94 89 93 90 88 81 69 77 64 60 69 75 78 79 73 72 76 80 73
63 62 62 62 62 61 61 61 60 60 60 60 60 59 59 58 58 58 54 67 77 78 68 82 84 86 90 91 83 88 92 78 78 69 75 68 62 75 82 82 81 79 71 72 77 78 75
62 62 62 61 61 61 60 60 60 60 60 60 60 59 58 57 57 58 70 78 87 84 66 79 84 83 82 84 82 82 85 81 75 71 72 66 73 84 83 80 78 74 68 72 71 80 78
62 61 61 61 61 60 60 60 60 60 60 59 60 59 58 57 60 73 76 86 88 85 57 72 75 82 86 85 78 93 90 83 77 72 75 71 82 83 80 78 77 64 80 79 78 71 61
61 61 61 60 60 60 60 60 59 59 59 59 60 59 58 57 58 68 82 89 85 79 47 77 77 91 86 78 80 84 92 82 74 75 70 70 76 75 76 78 80 73 84 80 79 71 65
61 61 60 60 60 60 59 59 59 59 58 58 58 58 57 62 58 69 82 88 79 56 52 74 80 76 74 78 82 85 83 84 84 76 76 75 85 80 78 84 82 85 78 74 72 67 55
61 60 60 60 60 59 59 58 58 58 58 58 57 56 56 68 72 84 85 76 55 51 76 71 70 75 72 72 76 78 74 68 63 55 58 71 75 80 83 72 77 75 62 52 50 51 52
60 60 60 59 59 59 58 58 58 58 58 57 56 56 60 69 79 84 78 63 50 69 72 80 76 74 69 73 73 75 70 65 72 69 61 58 58 72 80 71 67 69 63 52 46 48 55
60 60 60 59 59 58 58 58 58 58 57 56 55 73 75 77 77 79 67 53 59 69 79 77 75 67 66 73 73 71 68 66 72 73 57 57 61 79 82 80 73 68 60 67 56 56 54
60 59 59 59 58 58 58 58 58 58 57 56 57 67 75 89 87 76 61 55 65 75 80 78 64 69 63 69 66 66 66 73 75 78 72 62 55 73 80 79 77 67 72 57 55 45 44
59 59 59 59 58 58 58 58 58 57 56 56 62 68 84 91 86 67 57 62 72 82 81 73 69 68 69 67 69 64 66 73 75 74 74 63 57 64 73 64 64 64 59 59 59 56 49
59 59 59 59 58 58 58 58 57 56 55 63 70 63 87 89 64 65 63 70 68 78 80 74 75 73 69 71 67 66 67 68 75 70 67 66 58 53 62 75 78 68 63 63 52 52 56
59 59 59 59 58 58 58 58 57 56 55 59 62 69 86 84 59 64 70 74 78 77 76 73 72 76 75 69 58 69 68 73 73 71 62 65 56 51 55 61 67 63 67 62 62 58 53
59 59 59 59 58 58 58 58 58 57 57 58 63 62 73 76 74 68 66 67 69 81 78 78 72 75 69 67 68 63 66 74 75 69 68 68 59 54 47 54 63 62 68 69 60 51 54
59 59 59 58 58 58 58 58 58 58 58 58 65 65 71 62 67 67 68 68 69 68 77 76 68 72 68 61 64 64 70 67 71 67 65 65 55 57 62 67 69 70 69 71 61 58 55
59 58 58 58 58 58 58 58 58 57 57 60 60 63 68 65 66 65 63 64 67 71 72 69 67 73 71 62 65 62 69 63 61 61 59 65 54 57 57 67 69 67 71 72 70 68 67
58 58 58 58 58 58 58 58 58 57 56 62 69 70 64 60 63 62 63 65 68 72 73 75 73 71 69 69 73 71 73 71 68 62 59 57 57 54 49 62 62 57 65 68 69 71 67
57 57 58 58 58 58 58 58 58 56 55 59 64 63 58 55 61 62 66 68 68 69 64 73 73 64 70 77 76 74 72 71 69 65 66 56 54 54 49 54 42 61 73 75 64 64 68
56 57 57 57 58 58 58 58 58 57 55 56 62 60 57 53 60 60 64 61 65 62 66 69 71 70 73 70 60 56 57 59 61 63 61 62 55 50 47 47 56 64 68 67 63 55 64
56 56 56 57 57 58 58 59 58 57 55 55 57 60 55 49 52 61 57 60 55 59 62 67 71 71 70 62 57 48 46 54 53 56 62 61 56 51 49 46 45 57 69 74 69 47 62
56 56 56 56 57 57 58 58 59 58 55 55 55 59 52 46 53 57 53 53 55 52 51 62 64 63 67 53 49 49 50 60 51 51 51 51 49 47 47 45 53 64 70 72 52 48 61
55 56 56 56 57 57 57 58 59 59 58 54 53 57 53 48 53 60 60 53 53 52 48 56 59 61 57 51 48 51 52 56 56 57 53 51 47 46 48 45 42 65 64 54 55 60 61
55 55 55 55 56 56 57 57 58 58 58 56 50 55 56 50 51 60 64 64 62 58 52 57 58 59 60 53 51 54 52 55 54 47 60 50 54 50 51 48 57 62 59 62 62 58 58
MSLP
1020.77 1020.34 1019.96 1019.55 1019.07 1018.74 1018.42 1017.97 1017.56 1017.08 1016.62 1016.14 1015.71 1015.28 1014.90 1014.45 1013.90 1013.28 1012.85 1012.37 1011.88 1011.42 1011.06 1010.86 1010.60 1010.45 1010.13 1008.94 1005.99 1004.59 1004.91 1005.18 1005.21 1005.28 1005.07 1004.64 1004.12 1004.22 1006.17 1007.30 1007.70 1007.36 1005.84 1005.24 1004.05 1002.13 1001.12
1020.79 1020.46 1020.09 1019.70 1019.19 1018.71 1018.32 1017.88 1017.36 1016.86 1016.51 1016.07 1015.52 1015.00 1014.52 1014.14 1013.76 1013.14 1012.43 1011.91 1011.57 1011.16 1010.76 1010.58 1010.40 1010.42 1009.73 1007.06 1004.00 1004.17 1004.60 1004.95 1004.81 1004.96 1004.53 1004.01 1003.53 1003.47 1004.59 1006.31 1006.75 1006.33 1004.98 1003.52 1004.07 1002.58 1001.12
1020.74 1020.33 1019.92 1019.51 1019.16 1018.73 1018.26 1017.76 1017.23 1016.75 1016.26 1015.82 1015.45 1014.84 1014.24 1013.78 1013.32 1012.89 1012.26 1011.59 1011.10 1010.86 1010.55 1010.29 1010.19 1010.10 1008.33 1005.40 1003.39 1003.74 1004.15 1004.34 1004.29 1004.16 1003.89 1003.15 1002.85 1003.46 1004.18 1005.15 1004.99 1004.68 1005.35 1003.82 1002.98 1002.68 1003.40
1020.79 1020.35 1019.99 1019.51 1019.05 1018.66 1018.20 1017.75 1017.24 1016.71 1016.18 1015.68 1015.17 1014.67 1014.10 1013.52 1013.00 1012.41 1011.83 1011.36 1010.74 1010.43 1010.28 1010.07 1010.10 1009.70 1007.08 1003.61 1003.23 1003.42 1003.71 1003.90 1003.62 1003.44 1003.33 1002.89 1002.75 1003.20 1003.63 1003.86 1004.32 1004.54 1004.12 1003.63 1002.91 1004.28 1005.46
1020.76 1020.39 1019.95 1019.59 1019.16 1018.58 1018.04 1017.60 1017.17 1016.67 1016.23 1015.69 1015.12 1014.57 1013.91 1013.20 1012.60 1012.08 1011.37 1010.69 1010.23 1009.94 1009.93 1009.97 1010.06 1009.08 1005.60 1003.48 1003.38 1003.06 1003.14 1003.39 1003.17 1003.08 1003.10 1002.95 1003.30 1003.60 1003.49 1003.58 1003.72 1003.78 1003.91 1003.54 1003.39 1003.37 1004.94
1020.70 1020.23 1019.79 1019.34 1019.00 1018.56 1018.04 1017.50 1016.91 1016.39 1015.91 1015.47 1014.97 1014.43 1013.78 1013.05 1012.43 1011.89 1010.88 1009.78 1009.44 1009.59 1009.48 1009.27 1008.69 1007.99 1005.12 1003.28 1002.94 1002.87 1002.74 1002.83 1003.08 1003.38 1003.44 1003.53 1003.94 1003.92 1003.73 1003.79 1003.50 1003.34 1003.60 1003.55 1003.64 1004.23 1004.86
1020.63 1020.15 1019.73 1019.30 1018.78 1018.39 1017.99 1017.53 1016.94 1016.36 1015.75 1015.15 1014.66 1014.11 1013.46 1012.82 1012.21 1011.95 1010.84 1009.13 1009.60 1009.31 1008.50 1006.99 1005.88 1004.48 1002.71 1002.37 1002.55 1002.86 1002.78 1002.82 1003.00 1003.41 1003.81 1003.76 1004.40 1004.10 1003.66 1003.15 1002.68 1002.79 1003.28 1003.72 1003.89 1004.66 1006.05
1020.54 1020.13 1019.70 1019.28 1018.85 1018.37 1017.84 1017.28 1016.75 1016.09 1015.53 1015.04 1014.41 1013.85 1013.10 1012.32 1011.58 1011.53 1011.63 1009.77 1007.20 1006.43 1006.07 1005.06 1004.37 1003.60 1002.52 1002.33 1002.67 1002.60 1002.61 1003.18 1003.27 1003.67 1003.79 1004.06 1003.94 1003.35 1002.89 1002.59 1002.32 1002.61 1002.91 1003.48 1004.06 1004.45 1006.06
1020.35 1019.91 1019.51 1019.13 1018.65 1018.18 1017.75 1017.27 1016.73 1016.13 1015.56 1015.04 1014.39 1013.71 1012.98 1011.90 1010.88 1010.46 1009.70 1007.65 1006.12 1005.62 1005.55 1003.63 1003.24 1002.78 1002.43 1002.56 1002.51 1002.53 1002.78 1002.98 1003.31 1003.68 1003.67 1003.63 1002.84 1002.56 1002.28 1001.96 1001.90 1002.16 1002.60 1003.29 1004.06 1003.63 1004.75
1020.23 1019.74 1019.27 1018.88 1018.53 1018.04 1017.49 1017.00 1016.50 1015.96 1015.27 1014.71 1014.16 1013.55 1013.00 1011.84 1010.73 1009.62 1007.89 1006.24 1005.71 1005.24 1005.23 1002.91 1002.42 1002.03 1002.15 1002.31 1002.18 1001.91 1002.58 1003.02 1002.94 1003.17 1003.22 1002.96 1001.90 1001.86 1001.49 1001.33 1001.21 1001.60 1001.97 1002.63 1003.27 1003.65 1004.38
1020.04 1019.60 1019.17 1018.75 1018.35 1017.94 1017.36 1016.64 1016.12 1015.61 1015.03 1014.42 1013.96 1013.39 1012.93 1013.02 1011.74 1009.68 1006.93 1005.84 1005.58 1005.54 1004.73 1002.38 1001.67 1000.83 1001.39 1002.30 1001.25 1001.63 1002.15 1002.80 1002.97 1002.87 1002.98 1002.52 1001.53 1001.24 1000.84 1000.72 1000.62 1001.03 1001.63 1002.18 1002.73 1003.55 1004.51
1020.06 1019.59 1019.10 1018.63 1018.15 1017.71 1017.21 1016.55 1015.85 1015.28 1014.66 1014.01 1013.42 1013.12 1012.76 1011.92 1011.74 1008.28 1006.75 1006.01 1005.70 1005.79 1003.20 1001.69 1001.45 1001.51 1001.83 1001.98 1001.64 1001.76 1002.26 1002.70 1002.71 1002.95 1002.74 1002.13 1001.18 1000.78 1000.38 1000.27 1000.43 1001.02 1001.67 1002.42 1003.14 1004.06 1004.76
1019.73 1019.24 1018.78 1018.36 1017.95 1017.48 1016.99 1016.43 1015.75 1015.05 1014.36 1013.68 1012.81 1012.30 1012.68 1011.34 1008.90 1006.99 1006.62 1006.30 1006.30 1004.62 1001.76 1001.46 1001.60 1001.57 1001.96 1002.14 1002.01 1002.24 1002.74 1003.09 1003.47 1003.58 1003.40 1002.38 1001.49 1000.83 1000.16 1000.55 1000.88 1001.65 1002.58 1003.44 1004.26 1004.79 1004.57
1019.56 1019.17 1018.68 1018.25 1017.84 1017.38 1016.86 1016.32 1015.66 1014.89 1014.05 1013.29 1012.24 1010.82 1009.85 1009.40 1007.85 1007.33 1007.17 1006.95 1005.85 1003.05 1001.48 1000.55 1000.81 1001.43 1002.08 1002.07 1002.11 1002.28 1002.79 1003.36 1003.50 1003.66 1003.66 1003.04 1002.07 1001.11 1000.66 1000.98 1001.56 1002.19 1002.93 1003.97 1004.81 1005.39 1004.83
1019.49 1019.00 1018.52 1018.05 1017.66 1017.24 1016.72 1016.13 1015.44 1014.64 1013.69 1013.02 1011.67 1009.61 1008.83 1007.45 1007.69 1007.58 1007.66 1006.92 1004.41 1002.71 1001.32 1000.33 1000.60 1001.36 1001.92 1001.86 1001.75 1002.32 1002.73 1003.07 1002.86 1002.92 1003.63 1003.05 1002.17 1000.92 1000.65 1001.10 1001.74 1002.30 1002.51 1003.39 1004.83 1004.96 1004.97
1019.24 1018.79 1018.36 1017.92 1017.51 1017.11 1016.61 1016.06 1015.43 1014.54 1013.49 1013.07 1012.13 1009.72 1007.12 1005.80 1006.50 1006.94 1007.35 1006.25 1004.39 1002.87 1001.64 1000.92 1000.96 1001.10 1001.52 1001.67 1001.95 1002.23 1002.61 1002.31 1002.33 1002.22 1002.47 1003.35 1003.02 1000.30 1000.86 1001.21 1001.57 1002.33 1002.85 1003.87 1005.05 1006.00 1005.96
1019.14 1018.68 1018.27 1017.81 1017.37 1016.97 1016.53 1016.06 1015.46 1014.67 1013.45 1012.28 1011.68 1008.81 1005.09 1005.13 1005.83 1006.77 1006.77 1005.49 1003.82 1002.33 1001.34 1001.46 1001.47 1001.46 1001.33 1001.40 1001.60 1002.03 1002.41 1002.52 1002.25 1002.49 1002.54 1003.43 1003.85 1002.39 1001.62 1001.86 1002.19 1002.55 1003.03 1003.89 1004.78 1005.61 1006.24
1018.95 1018.55 1018.17 1017.71 1017.25 1016.88 1016.49 1016.00 1015.56 1014.95 1013.79 1011.88 1011.07 1008.38 1005.03 1005.13 1006.08 1006.14 1005.86 1005.01 1003.58 1002.30 1001.64 1001.60 1001.67 1001.71 1001.59 1001.20 1001.56 1001.85 1002.39 1002.58 1002.74 1003.08 1003.74 1004.54 1004.64 1004.25 1002.73 1001.88 1001.95 1002.38 1003.01 1003.64 1005.17 1005.86 1005.87
1018.80 1018.42 1017.99 1017.56 1017.20 1016.80 1016.42 1016.00 1015.66 1015.29 1015.02 1014.30 1011.90 1008.49 1005.10 1004.92 1005.69 1005.74 1005.05 1004.18 1003.21 1002.20 1001.59 1001.51 1001.75 1001.62 1001.40 1001.36 1001.56 1001.63 1002.61 1003.43 1003.35 1003.63 1004.56 1005.08 1005.35 1004.90 1003.69 1002.83 1002.47 1002.51 1002.70 1003.15 1003.96 1004.83 1005.98
1018.45 1018.06 1017.66 1017.35 1017.04 1016.73 1016.33 1015.98 1015.71 1015.44 1015.27 1015.04 1012.53 1008.78 1005.85 1005.21 1005.44 1005.53 1005.16 1004.36 1003.31 1001.99 1001.57 1001.68 1001.78 1001.55 1001.64 1001.74 1001.55 1002.26 1003.13 1003.71 1003.96 1004.72 1004.97 1005.32 1006.26 1006.45 1006.12 1005.29 1004.48 1003.08 1002.73 1002.82 1003.55 1004.83 1005.82
1017.95 1017.68 1017.34 1016.96 1016.77 1016.44 1016.09 1015.76 1015.54 1015.44 1015.30 1015.32 1012.46 1009.18 1007.56 1006.61 1006.17 1006.30 1005.49 1004.66 1003.59 1002.69 1001.97 1001.70 1002.12 1001.77 1001.90 1002.13 1002.13 1002.06 1002.91 1004.08 1004.40 1005.00 1005.48 1005.77 1006.35 1006.30 1006.00 1005.48 1004.33 1003.30 1002.77 1002.78 1003.32 1004.11 1005.78
1017.63 1017.26 1017.00 1016.69 1016.36 1016.10 1015.87 1015.61 1015.38 1015.24 1015.09 1014.90 1012.61 1010.32 1008.90 1008.21 1007.61 1006.83 1006.11 1005.26 1004.33 1003.32 1002.64 1002.37 1002.29 1002.43 1002.35 1002.40 1002.26 1002.39 1002.71 1003.53 1004.36 1005.30 1005.64 1005.93 1006.50 1006.72 1006.69 1005.85 1004.95 1004.09 1003.14 1002.83 1003.22 1004.01 1005.48
1017.30 1017.00 1016.58 1016.26 1015.93 1015.69 1015.50 1015.36 1015.28 1015.22 1015.18 1014.12 1011.84 1011.08 1010.48 1009.12 1008.35 1007.70 1006.68 1005.87 1005.03 1004.11 1003.28 1002.90 1002.39 1002.73 1002.80 1002.87 1002.84 1002.51 1002.78 1002.89 1003.55 1004.81 1005.96 1006.49 1006.90 1007.30 1007.27 1006.55 1005.90 1004.84 1003.72 1003.67 1003.90 1004.56 1005.80
1016.84 1016.45 1016.16 1015.77 1015.49 1015.25 1015.08 1014.98 1014.86 1014.93 1015.04 1014.77 1013.56 1012.89 1011.79 1010.13 1009.28 1008.27 1007.35 1006.71 1005.75 1005.16 1004.54 1003.63 1003.46 1003.24 1003.27 1003.05 1003.42 1002.84 1003.45 1004.24 1004.63 1005.15 1005.68 1006.80 1007.55 1007.94 1008.12 1007.41 1006.78 1005.26 1004.26 1004.29 1005.74 1007.41 1007.63
1016.24 1015.90 1015.60 1015.26 1014.93 1014.69 1014.54 1014.52 1014.43 1014.45 1014.62 1014.72 1014.05 1013.61 1012.77 1011.51 1010.34 1009.33 1008.40 1008.36 1007.08 1006.32 1005.71 1005.06 1004.67 1004.76 1003.66 1004.05 1004.64 1004.68 1004.91 1005.14 1005.46 1005.72 1006.10 1006.64 1007.58 1008.46 1008.50 1008.24 1007.57 1006.06 1005.62 1005.60 1005.91 1009.63 1010.25
1015.58 1015.22 1014.93 1014.64 1014.32 1014.08 1013.91 1013.84 1013.86 1013.99 1014.11 1014.37 1014.04 1013.92 1013.75 1012.99 1011.32 1010.45 1009.97 1009.45 1009.10 1008.07 1006.47 1005.83 1005.61 1005.32 1004.73 1005.09 1005.72 1005.99 1005.95 1005.92 1006.20 1006.44 1006.62 1007.16 1007.84 1009.02 1009.16 1009.00 1008.31 1007.20 1006.54 1006.37 1006.95 1010.65 1011.68
1014.80 1014.44 1014.11 1013.86 1013.68 1013.52 1013.27 1013.24 1013.22 1013.36 1013.59 1013.80 1013.57 1013.60 1013.69 1013.17 1011.76 1011.20 1010.72 1010.42 1010.24 1009.81 1009.35 1007.30 1006.69 1006.33 1005.69 1006.44 1006.99 1006.84 1006.39 1006.17 1006.34 1006.66 1007.24 1007.90 1008.64 1009.16 1009.63 1009.61 1008.76 1008.03 1007.41 1007.31 1008.62 1012.15 1012.34
1013.82 1013.42 1013.10 1012.91 1012.70 1012.52 1012.50 1012.47 1012.60 1012.61 1012.83 1013.25 1013.02 1013.07 1013.21 1012.89 1011.81 1011.16 1010.85 1010.81 1010.63 1010.44 1010.93 1009.98 1008.17 1007.24 1006.95 1007.27 1007.79 1007.85 1007.14 1006.69 1006.68 1006.29 1006.97 1007.97 1008.76 1009.25 1009.73 1009.92 1009.86 1009.17 1008.89 1009.60 1011.42 1012.19 1012.82
1012.60 1012.31 1012.13 1011.87 1011.77 1011.67 1011.71 1011.68 1011.78 1011.92 1012.18 1012.52 1012.84 1012.67 1012.89 1013.10 1012.14 1011.11 1010.36 1010.26 1010.47 1010.47 1011.25 1010.39 1008.56 1007.38 1006.79 1007.39 1007.95 1007.83 1007.59 1006.87 1006.72 1006.88 1006.78 1007.78 1008.04 1008.80 1009.39 1009.95 1010.21 1010.17 1010.56 1010.99 1011.55 1012.48 1013.27
Wind_Speed
14 15 16 17 17 13 14 17 14 14 15 16 15 19 19 19 20 21 20 19 18 18 17 15 13 10 5 3 7 6 7 6 6 4 8 9 9 6 10 10 7 4 13 8 13 15 7
14 14 14 15 16 17 18 15 16 17 16 16 17 17 21 20 20 19 20 19 18 17 15 13 10 7 3 4 8 10 9 7 6 7 9 10 8 9 13 13 7 7 16 14 1 14 13
15 15 16 16 16 18 18 18 17 17 17 19 18 17 20 22 22 20 19 20 20 16 14 11 5 4 5 11 8 9 8 7 9 11 11 9 6 7 7 11 12 6 10 11 6 11 11
15 15 15 16 16 16 17 17 17 17 17 18 21 19 19 23 22 21 20 19 20 16 10 6 0 4 7 5 4 9 9 8 11 12 8 8 9 6 3 6 9 6 5 5 9 19 6
15 15 15 14 15 17 16 16 17 17 18 19 21 20 19 19 21 21 21 21 19 13 8 3 3 3 7 2 5 7 9 10 10 5 6 7 6 4 7 5 4 8 6 6 2 12 8
16 16 16 17 16 15 16 17 17 22 22 21 21 21 20 21 21 21 24 17 4 8 6 7 9 4 7 8 5 6 6 9 3 6 6 3 2 3 4 1 5 3 6 2 2 6 10
16 16 17 17 18 17 16 16 16 17 22 22 22 22 23 21 22 18 13 3 1 0 5 9 5 6 9 9 7 7 8 7 6 5 6 7 3 7 11 11 12 4 7 6 6 16 10
17 17 16 17 16 16 17 17 17 17 18 20 21 22 24 25 23 17 4 4 8 5 7 13 17 13 2 7 6 9 7 3 6 7 7 5 8 11 11 13 14 5 8 2 6 14 1
17 19 18 16 15 15 16 16 16 17 18 19 20 24 24 27 27 4 6 8 8 8 3 10 16 6 6 5 7 8 8 8 5 8 9 9 11 14 15 12 11 5 11 6 10 9 8
17 17 17 16 15 15 15 16 15 15 18 18 21 24 24 29 3 7 5 13 6 3 3 5 6 7 9 7 7 11 8 8 5 9 9 8 15 13 14 10 8 7 14 16 18 5 5
18 18 17 16 16 15 16 17 16 17 17 19 22 22 22 8 8 5 9 9 4 4 3 9 7 3 10 7 5 9 11 7 10 7 4 12 10 8 8 11 4 5 10 15 9 7 1
16 16 16 16 15 14 15 16 17 17 18 20 21 20 19 2 5 11 12 11 3 1 5 9 6 6 6 8 6 11 7 7 7 8 9 11 10 7 7 3 3 7 7 5 6 4 4
16 16 17 16 16 16 15 15 17 18 20 22 24 22 8 7 5 10 7 4 2 4 6 8 9 8 8 8 8 9 7 5 4 2 7 9 9 7 2 1 4 6 4 3 4 2 6
17 16 16 15 15 15 15 15 16 18 21 21 25 28 8 9 7 9 5 3 4 9 11 9 9 10 8 10 9 9 6 6 10 9 5 6 7 5 1 4 6 11 7 6 6 4 8
16 15 15 15 14 14 14 15 16 19 22 20 26 3 4 5 11 7 2 4 5 5 13 0 6 6 9 10 7 6 9 9 11 11 6 3 6 7 13 8 4 8 5 7 3 5 5
16 15 14 14 14 14 15 15 17 20 23 17 6 4 6 11 12 3 1 6 8 13 13 8 3 5 8 11 6 8 8 6 7 4 9 4 7 9 10 6 7 7 4 3 3 1 3
15 16 14 13 12 13 14 15 17 19 25 21 3 4 4 8 5 1 4 7 12 18 2 4 9 9 7 7 11 6 7 2 2 6 5 5 1 7 8 5 6 3 4 3 3 6 5
15 15 14 13 12 13 14 14 15 17 25 8 5 4 6 6 2 4 8 10 9 21 2 3 7 10 9 10 8 9 8 4 5 3 4 5 2 4 7 8 8 5 6 7 6 7 6
15 14 13 13 13 12 13 13 13 13 13 7 6 6 6 4 4 7 13 18 19 18 9 5 6 12 9 8 1 7 8 3 2 4 3 3 5 4 6 6 3 4 5 6 5 1 6
14 15 14 13 12 12 11 11 11 11 11 4 4 5 3 5 6 9 12 13 17 11 8 9 5 9 6 7 6 7 7 4 5 5 6 6 1 4 3 8 7 6 8 6 5 2 6
15 15 15 13 12 12 10 10 9 10 10 3 4 5 6 6 7 12 11 12 15 17 12 6 7 7 7 5 7 3 13 7 3 5 2 4 2 2 6 10 14 12 5 9 5 4 6
17 16 15 14 13 12 11 9 8 8 7 3 4 5 8 11 12 12 11 13 14 17 15 6 5 11 10 4 6 5 7 7 7 3 3 2 2 2 5 9 14 15 8 8 5 2 7
19 18 17 15 13 12 11 9 8 6 3 4 4 6 4 7 8 10 9 12 18 13 13 12 6 9 12 5 9 5 7 6 10 10 6 1 1 2 4 6 9 7 5 6 5 9 7
19 19 18 17 14 13 11 10 8 6 5 2 3 4 4 6 8 11 15 17 15 16 4 13 9 2 3 4 5 8 9 8 7 6 7 4 4 2 1 4 3 7 9 9 20 18 16
20 19 18 18 16 13 12 11 9 8 7 2 3 3 3 6 7 13 13 15 12 12 8 5 10 7 3 5 3 3 2 2 2 1 4 2 3 1 3 2 6 8 5 6 1 9 14
20 20 19 19 17 16 14 13 11 10 8 3 3 1 2 1 7 11 9 8 5 9 2 3 2 7 5 3 2 3 5 5 5 3 6 3 1 5 2 3 5 3 6 9 7 5 7
20 19 19 20 20 19 17 15 13 12 10 5 3 5 2 3 4 5 4 4 2 2 4 6 3 3 4 3 3 1 2 2 6 8 6 1 2 6 4 3 2 5 7 8 3 5 6
21 19 19 18 17 17 17 17 15 14 12 8 2 5 4 3 5 7 7 5 2 4 2 6 3 4 0 4 3 3 2 6 6 8 10 7 6 4 4 6 5 8 7 6 6 7 8
22 22 21 20 19 20 19 17 16 14 13 13 3 5 3 2 3 5 11 8 4 7 5 5 5 5 4 3 1 2 1 4 2 4 4 3 5 5 4 5 6 9 10 7 8 9 7
Wind_Direction
348 352 351 349 345 348 348 348 342 334 336 332 335 345 340 336 331 328 328 324 321 317 315 313 312 313 281 212 245 129 152 162 181 177 222 250 273 265 123 148 199 231 271 250 292 261 170
347 344 341 340 340 343 352 346 338 333 335 332 330 328 338 336 331 325 323 322 318 315 313 313 308 317 251 254 128 146 183 156 208 214 225 246 261 287 136 161 164 208 267 275 146 273 110
341 342 343 341 341 348 350 350 345 341 334 334 333 325 330 332 329 324 321 318 316 315 311 309 301 267 266 261 132 165 161 189 224 206 240 246 287 16 22 152 209 236 214 289 97 35 344
337 339 337 334 340 346 344 347 343 340 335 333 335 330 329 331 326 321 319 314 310 305 304 307 242 264 249 197 328 173 176 212 231 241 256 331 3 347 267 227 178 163 6 319 112 143 357
337 332 331 334 342 339 335 337 342 341 340 336 333 328 319 321 318 322 317 307 297 290 271 261 248 223 274 16 250 211 179 212 233 227 292 287 16 260 312 277 260 181 199 218 155 160 125
329 330 332 331 340 332 332 331 334 343 341 339 335 326 318 318 321 326 319 292 277 311 209 215 261 284 263 219 209 209 220 239 171 220 249 209 260 266 292 275 241 149 110 302 139 27 96
322 326 326 328 335 330 327 324 324 329 339 337 335 330 324 320 319 327 339 358 44 176 251 222 242 228 164 206 166 209 220 240 195 203 213 221 164 223 237 244 256 182 167 206 176 108 96
328 328 327 330 330 325 324 322 321 322 326 333 330 330 325 320 317 320 278 268 300 294 300 241 252 244 339 126 171 197 202 186 202 225 218 287 215 238 236 247 260 121 117 275 293 104 258
327 329 330 329 325 324 323 318 312 318 324 329 327 328 327 322 316 282 223 254 312 300 276 284 213 217 244 148 207 209 167 220 219 237 235 211 229 226 248 248 253 171 158 168 245 168 188
325 325 326 324 321 321 319 316 314 315 318 322 330 329 328 327 328 339 256 228 278 319 310 238 188 226 209 198 254 194 172 207 243 222 241 233 253 227 230 250 230 275 166 169 231 145 182
329 327 322 319 319 317 317 318 320 316 315 316 325 319 323 315 304 290 320 325 348 10 314 140 171 160 156 181 250 167 170 238 254 262 223 257 252 259 251 229 255 235 121 187 209 175 86
321 320 321 319 320 319 319 318 318 316 314 315 313 315 328 110 205 248 292 292 338 327 248 171 129 184 193 207 256 148 158 215 267 269 280 253 281 235 245 289 347 296 299 279 173 187 193
326 327 326 325 324 324 323 321 318 317 315 315 310 304 292 289 237 315 292 309 305 231 155 150 166 177 210 212 216 142 188 198 238 232 285 271 268 287 112 315 272 273 323 321 350 10 216
328 325 324 325 323 322 320 319 317 315 312 313 312 308 218 213 239 283 279 332 252 269 246 154 161 155 211 196 234 165 183 210 234 255 267 203 276 227 323 207 204 231 188 166 190 213 244
325 324 324 323 323 320 320 321 321 318 316 322 311 288 215 229 218 254 307 243 237 4 332 110 143 170 204 225 197 148 193 204 219 223 211 307 269 214 191 219 189 279 199 235 329 287 7
326 324 325 325 325 325 324 325 327 324 321 330 316 276 250 232 186 208 208 254 291 300 299 350 304 266 197 220 170 155 194 225 246 181 96 327 329 202 177 135 270 186 233 248 334 284 284
323 324 324 325 327 326 326 329 332 331 325 328 248 287 163 144 145 187 233 254 283 291 299 343 301 292 257 250 167 183 206 351 94 58 71 49 202 303 108 150 221 281 282 286 141 156 184
319 319 321 324 327 327 328 331 336 339 333 345 304 284 176 148 183 213 237 252 265 285 201 232 269 287 283 263 197 172 233 68 18 70 43 58 269 323 250 176 195 242 243 202 130 277 238
316 317 318 319 321 322 324 330 336 345 8 322 306 279 268 165 240 252 256 261 256 265 317 178 257 276 273 291 237 189 86 3 136 92 107 48 326 311 321 34 182 207 266 221 212 118 263
312 313 316 316 312 313 317 325 333 340 350 318 284 295 232 190 221 253 283 296 300 292 220 288 294 272 299 306 297 104 121 125 69 80 130 101 177 117 230 261 283 233 234 266 197 198 261
310 310 309 307 305 305 308 315 324 333 344 312 250 266 353 306 324 333 320 305 279 293 292 197 321 283 278 241 287 147 130 117 122 138 135 145 212 10 317 322 318 313 251 244 278 236 94
308 306 302 303 302 301 301 301 310 324 332 249 285 343 340 305 301 306 305 295 296 291 290 249 200 284 298 268 234 224 210 153 165 143 161 261 240 60 300 314 307 315 295 269 225 307 69
306 304 301 298 298 295 292 288 291 303 342 288 331 344 319 290 297 286 287 302 302 300 324 315 218 247 267 37 7 51 38 89 160 147 178 97 128 143 238 274 310 323 303 331 22 29 82
303 301 300 296 290 289 287 277 268 260 210 331 311 311 287 276 276 286 303 310 301 305 342 281 328 49 87 61 333 27 42 43 40 53 133 179 136 100 229 31 270 263 324 324 83 47 31
302 299 297 295 290 279 277 272 261 247 217 241 315 296 310 268 292 296 308 321 320 322 276 319 29 344 31 26 72 47 49 52 62 125 318 7 111 178 136 128 306 306 22 358 74 55 23
302 299 294 291 288 281 271 263 253 238 215 194 219 237 234 246 236 275 290 294 314 332 250 227 337 335 3 101 61 172 161 154 179 194 236 208 146 122 349 185 206 284 42 351 125 84 34
299 294 291 288 284 280 275 268 254 234 211 186 217 184 160 208 251 260 245 269 205 93 318 331 163 317 23 64 42 260 204 317 201 183 160 190 247 170 233 239 105 0 12 330 124 151 89
287 283 278 275 272 270 268 264 260 246 220 183 208 195 182 216 247 229 202 194 189 109 163 273 243 272 84 90 108 242 220 219 230 188 154 165 170 185 188 205 224 337 28 70 156 99 99
282 278 274 270 266 265 264 260 254 247 232 193 199 198 182 225 286 298 254 235 273 114 110 270 297 243 188 106 2 186 309 352 263 152 115 169 148 154 116 149 135 76 103 87 93 100 80